• In Uzbekistan
  • List of Countries
  • For 7 days
  • Water Temperature
  • Weather Map
  • Weather Widgets
  • user-avatar
    Login

    Hourly Weather Vanadzor

    Today, 30 May, Saturday

    Time Temperature Precipitation Wind Pressure Humidity
    00:00 +13°C° 0.2 mm 1 mps 634 mmHg 70%
    01:00 +13°C° 0.1 mm 1 mps 633 mmHg 68%
    02:00 +12°C° 0.1 mm 1 mps 633 mmHg 66%
    03:00 +12°C° 0 mm 1 mps 633 mmHg 65%
    04:00 +12°C° 0 mm 1 mps 633 mmHg 67%
    05:00 +13°C° 0 mm 1 mps 634 mmHg 69%
    06:00 +14°C° 0 mm 1 mps 634 mmHg 71%
    07:00 +16°C° 0 mm 1 mps 634 mmHg 65%
    08:00 +18°C° 0 mm 1 mps 635 mmHg 58%
    09:00 +18°C° 0 mm 0 mps 635 mmHg 52%
    10:00 +21°C° 0 mm 1 mps 635 mmHg 49%
    11:00 +22°C° 0 mm 1 mps 636 mmHg 46%
    12:00 +23°C° 0 mm 2 mps 636 mmHg 43%
    13:00 +23°C° 0 mm 2 mps 636 mmHg 42%
    14:00 +24°C° 0 mm 2 mps 635 mmHg 42%
    15:00 +24°C° 0 mm 2 mps 635 mmHg 42%
    16:00 +23°C° 0.2 mm 2 mps 635 mmHg 50%
    17:00 +22°C° 0.2 mm 1 mps 635 mmHg 59%
    18:00 +21°C° 0.2 mm 1 mps 635 mmHg 67%
    19:00 +19°C° 0.1 mm 1 mps 634 mmHg 71%
    20:00 +16°C° 0.1 mm 1 mps 634 mmHg 74%
    21:00 +14°C° 0.1 mm 1 mps 634 mmHg 78%
    22:00 +13°C° 0.1 mm 1 mps 634 mmHg 76%
    23:00 +13°C° 0.1 mm 1 mps 634 mmHg 75%

    Tomorrow, 31 May, Sunday

    Time Temperature Precipitation Wind Pressure Humidity
    00:00 +13°C° 0.1 mm 1 mps 634 mmHg 73%
    01:00 +12°C° 0.1 mm 1 mps 634 mmHg 74%
    02:00 +11°C° 0.1 mm 1 mps 634 mmHg 75%
    03:00 +10°C° 0.1 mm 0 mps 634 mmHg 75%
    04:00 +10°C° 0 mm 0 mps 635 mmHg 78%
    05:00 +11°C° 0 mm 0 mps 635 mmHg 81%
    06:00 +12°C° 0 mm 0 mps 636 mmHg 84%
    07:00 +13°C° 0 mm 0 mps 636 mmHg 79%
    08:00 +15°C° 0 mm 1 mps 636 mmHg 74%
    09:00 +18°C° 0 mm 1 mps 637 mmHg 69%
    10:00 +19°C° 0 mm 1 mps 637 mmHg 63%
    11:00 +20°C° 0 mm 1 mps 637 mmHg 58%
    12:00 +21°C° 0 mm 1 mps 637 mmHg 52%
    13:00 +20°C° 0.1 mm 2 mps 637 mmHg 52%
    14:00 +21°C° 0.1 mm 2 mps 636 mmHg 51%
    15:00 +21°C° 0.1 mm 2 mps 636 mmHg 51%
    16:00 +20°C° 0.1 mm 2 mps 636 mmHg 59%
    17:00 +19°C° 0.1 mm 2 mps 635 mmHg 66%
    18:00 +18°C° 0.1 mm 2 mps 635 mmHg 74%
    19:00 +16°C° 0.1 mm 1 mps 635 mmHg 79%
    20:00 +14°C° 0.1 mm 1 mps 634 mmHg 85%
    21:00 +12°C° 0.1 mm 1 mps 634 mmHg 90%
    22:00 +12°C° 0 mm 1 mps 634 mmHg 89%
    23:00 +12°C° 0 mm 1 mps 634 mmHg 87%

    Day after tomorrow, 1 June, Monday

    Time Temperature Precipitation Wind Pressure Humidity
    00:00 +11°C° 0 mm 1 mps 633 mmHg 85%
    01:00 +11°C° 0 mm 1 mps 633 mmHg 85%
    02:00 +11°C° 0 mm 1 mps 633 mmHg 84%
    03:00 +11°C° 0 mm 1 mps 633 mmHg 83%
    04:00 +12°C° 0 mm 1 mps 633 mmHg 82%
    05:00 +13°C° 0 mm 1 mps 634 mmHg 82%
    06:00 +14°C° 0 mm 1 mps 634 mmHg 81%
    07:00 +15°C° 0 mm 1 mps 635 mmHg 74%
    08:00 +18°C° 0 mm 1 mps 635 mmHg 67%
    09:00 +20°C° 0 mm 1 mps 635 mmHg 60%
    10:00 +20°C° 0.1 mm 2 mps 636 mmHg 57%
    11:00 +21°C° 0.1 mm 2 mps 636 mmHg 54%
    12:00 +21°C° 0.1 mm 3 mps 636 mmHg 51%
    13:00 +22°C° 0.1 mm 3 mps 636 mmHg 50%
    14:00 +22°C° 0.1 mm 3 mps 635 mmHg 50%
    15:00 +22°C° 0.1 mm 4 mps 635 mmHg 49%
    16:00 +21°C° 0.2 mm 3 mps 635 mmHg 55%
    17:00 +21°C° 0.2 mm 2 mps 634 mmHg 61%
    18:00 +20°C° 0.2 mm 2 mps 634 mmHg 67%
    19:00 +18°C° 0 mm 2 mps 634 mmHg 66%
    20:00 +16°C° 0 mm 1 mps 633 mmHg 64%
    21:00 +14°C° 0 mm 1 mps 633 mmHg 62%
    22:00 +14°C° 0 mm 1 mps 633 mmHg 61%
    23:00 +13°C° 0 mm 1 mps 633 mmHg 59%

    2 June, Tuesday

    Time Temperature Precipitation Wind Pressure Humidity
    00:00 +13°C° 0 mm 1 mps 632 mmHg 58%
    01:00 +12°C° 0 mm 1 mps 632 mmHg 57%
    02:00 +12°C° 0 mm 1 mps 632 mmHg 57%
    03:00 +12°C° 0 mm 2 mps 632 mmHg 56%
    04:00 +13°C° 0 mm 1 mps 632 mmHg 59%
    05:00 +14°C° 0 mm 1 mps 632 mmHg 62%
    06:00 +14°C° 0 mm 1 mps 633 mmHg 65%
    07:00 +17°C° 0 mm 2 mps 633 mmHg 59%
    08:00 +19°C° 0 mm 3 mps 634 mmHg 54%
    09:00 +21°C° 0 mm 4 mps 634 mmHg 48%
    10:00 +22°C° 0 mm 5 mps 635 mmHg 47%
    11:00 +23°C° 0 mm 5 mps 635 mmHg 46%
    12:00 +24°C° 0 mm 6 mps 635 mmHg 44%
    13:00 +24°C° 0 mm 6 mps 634 mmHg 46%
    14:00 +24°C° 0 mm 6 mps 634 mmHg 48%
    15:00 +25°C° 0 mm 5 mps 634 mmHg 50%
    16:00 +23°C° 0 mm 4 mps 634 mmHg 54%
    17:00 +22°C° 0 mm 3 mps 634 mmHg 59%
    18:00 +21°C° 0 mm 2 mps 634 mmHg 64%
    19:00 +19°C° 0 mm 2 mps 633 mmHg 64%
    20:00 +17°C° 0 mm 2 mps 633 mmHg 63%
    21:00 +15°C° 0 mm 1 mps 633 mmHg 62%
    22:00 +15°C° 0 mm 2 mps 632 mmHg 61%
    23:00 +14°C° 0 mm 2 mps 632 mmHg 59%

    3 June, Wednesday

    Time Temperature Precipitation Wind Pressure Humidity
    00:00 +13°C° 0 mm 2 mps 632 mmHg 58%
    01:00 +13°C° 0 mm 2 mps 632 mmHg 57%
    02:00 +12°C° 0 mm 2 mps 632 mmHg 57%
    03:00 +12°C° 0 mm 2 mps 632 mmHg 56%
    04:00 +13°C° 0 mm 2 mps 632 mmHg 59%
    05:00 +13°C° 0 mm 2 mps 632 mmHg 61%
    06:00 +14°C° 0 mm 2 mps 632 mmHg 64%
    07:00 +16°C° 0 mm 2 mps 633 mmHg 57%
    08:00 +18°C° 0 mm 2 mps 633 mmHg 51%
    09:00 +22°C° 0 mm 1 mps 634 mmHg 44%
    10:00 +23°C° 0 mm 2 mps 634 mmHg 43%
    11:00 +22°C° 0 mm 3 mps 635 mmHg 43%
    12:00 +23°C° 0 mm 4 mps 635 mmHg 42%
    13:00 +22°C° 0 mm 5 mps 635 mmHg 48%
    14:00 +21°C° 0 mm 5 mps 634 mmHg 54%
    15:00 +20°C° 0 mm 6 mps 634 mmHg 60%
    16:00 +19°C° 0.1 mm 5 mps 634 mmHg 65%
    17:00 +18°C° 0.1 mm 3 mps 634 mmHg 71%
    18:00 +17°C° 0.1 mm 2 mps 634 mmHg 77%
    19:00 +16°C° 0.1 mm 2 mps 634 mmHg 77%
    20:00 +15°C° 0.1 mm 2 mps 633 mmHg 77%
    21:00 +14°C° 0.1 mm 2 mps 633 mmHg 77%
    22:00 +14°C° 0 mm 2 mps 633 mmHg 77%
    23:00 +13°C° 0 mm 2 mps 633 mmHg 78%

    4 June, Thursday

    Time Temperature Precipitation Wind Pressure Humidity
    00:00 +13°C° 0 mm 2 mps 632 mmHg 79%
    01:00 +13°C° 0 mm 2 mps 632 mmHg 78%
    02:00 +12°C° 0 mm 2 mps 632 mmHg 78%
    03:00 +12°C° 0 mm 2 mps 632 mmHg 77%
    04:00 +13°C° 0 mm 2 mps 632 mmHg 77%
    05:00 +14°C° 0 mm 2 mps 633 mmHg 76%
    06:00 +15°C° 0 mm 1 mps 633 mmHg 76%
    07:00 +17°C° 0 mm 2 mps 633 mmHg 67%
    08:00 +19°C° 0 mm 2 mps 634 mmHg 59%
    09:00 +21°C° 0 mm 2 mps 634 mmHg 50%
    10:00 +23°C° 0 mm 2 mps 635 mmHg 47%
    11:00 +24°C° 0 mm 3 mps 635 mmHg 44%
    12:00 +25°C° 0 mm 3 mps 635 mmHg 41%
    13:00 +25°C° 0 mm 3 mps 635 mmHg 40%
    14:00 +25°C° 0 mm 3 mps 635 mmHg 39%
    15:00 +25°C° 0 mm 2 mps 635 mmHg 39%
    16:00 +24°C° 0 mm 2 mps 635 mmHg 46%
    17:00 +23°C° 0 mm 2 mps 635 mmHg 54%
    18:00 +23°C° 0 mm 1 mps 634 mmHg 61%
    19:00 +20°C° 0 mm 1 mps 634 mmHg 66%
    20:00 +18°C° 0 mm 1 mps 634 mmHg 71%
    21:00 +14°C° 0 mm 1 mps 633 mmHg 76%
    22:00 +14°C° 0 mm 1 mps 633 mmHg 78%
    23:00 +13°C° 0 mm 1 mps 633 mmHg 80%
    Show more